OpenBCM V1.13 (Linux)

Packet Radio Mailbox

DB0FHN

[JN59NK Nuernberg]

 Login: GUEST





  
CX2SA  > KEPS     29.10.04 06:22l 95 Lines 2473 Bytes #999 (0) @ AMSAT
BID : ORB04302.M
Read: GUEST
Subj: Orbital Elements  04302.MISC
Path: DB0FHN<DB0RGB<OK0PPL<DB0RES<ON0AR<TU5EX<CX2SA
Sent: 041029/0416Z @:CX2SA.LAV.URY.SA #:32069 [Minas] FBB7.00e $:ORB04302.M
From: CX2SA@CX2SA.LAV.URY.SA
To  : KEPS@AMSAT


HR AMSAT ORBITAL ELEMENTS FOR MANNED AND MISCELLANEOUS SATELLITES
FROM WA5QGD FORT WORTH,TX October 28, 2004
SEND SUBSCRIBE/UNSUBSCRIBE TO majordomo@amsat.org ONLY
BID: ORB04302.M
TO ALL RADIO AMATEURS BT

Satellite: HUBBLE
Catalog number: 20580
Epoch time:      04302.31673682
Element set:     194
Inclination:       28.4703 deg
RA of node:       339.2514 deg
Eccentricity:    0.0003780
Arg of perigee:   329.9778 deg
Mean anomaly:      30.0630 deg
Mean motion:   14.99378248 rev/day
Decay rate:      1.630e-05 rev/day^2
Epoch rev:           59540
Checksum:              296

Satellite: UARS
Catalog number: 21701
Epoch time:      04302.38728409
Element set:     296
Inclination:       56.9800 deg
RA of node:        49.5866 deg
Eccentricity:    0.0003815
Arg of perigee:    99.8620 deg
Mean anomaly:     260.2905 deg
Mean motion:   15.03652201 rev/day
Decay rate:       3.57e-06 rev/day^2
Epoch rev:           71862
Checksum:              292

Satellite: PO-34
Catalog number: 25520
Epoch time:      04302.39942492
Element set:      41
Inclination:       28.4589 deg
RA of node:        61.4730 deg
Eccentricity:    0.0005961
Arg of perigee:   220.7420 deg
Mean anomaly:     139.2742 deg
Mean motion:   15.15828145 rev/day
Decay rate:      2.131e-05 rev/day^2
Epoch rev:           33137
Checksum:              273

Satellite: ISS
Catalog number: 25544
Epoch time:      04302.89840278
Element set:      20
Inclination:       51.6374 deg
RA of node:         3.4953 deg
Eccentricity:    0.0008526
Arg of perigee:   289.2736 deg
Mean anomaly:      56.9703 deg
Mean motion:   15.69822361 rev/day
Decay rate:     3.2754e-04 rev/day^2
Epoch rev:           33931
Checksum:              305

Satellite: OO-38
Catalog number: 26063
Epoch time:      04302.54624801
Element set:     196
Inclination:      100.2263 deg
RA of node:       113.9490 deg
Eccentricity:    0.0036962
Arg of perigee:   347.6059 deg
Mean anomaly:      12.4205 deg
Mean motion:   14.35675973 rev/day
Decay rate:        9.1e-07 rev/day^2
Epoch rev:           24905
Checksum:              289

Satellite: NO-45
Catalog number: 26932
Epoch time:      04301.64803147
Element set:    0882
Inclination:      067.0550 deg
RA of node:       106.3265 deg
Eccentricity:    0.0006500
Arg of perigee:   285.1870 deg
Mean anomaly:     074.8474 deg
Mean motion:   14.29447498 rev/day
Decay rate:       -8.4e-07 rev/day^2
Epoch rev:           16056
Checksum:              306



Read previous mail | Read next mail


 21.06.2026 21:50:06lGo back Go up